CW1490 Weather Reports


time (UTC)temp
F
wind
direction
speed
knots
gust
knots
rain 1hr
in
rain 24hr
in
rain mn
in
humidity
%
barometer
mb
20201124175019 42 317 3.5 13.0 0.00 0.00 0.00 49 1025.4
20201124174516 41 315 6.1 12.2 0.00 0.00 0.00 46 1025.3
20201124174019 41 308 7.0 12.2 0.00 0.00 0.00 47 1025.3
20201124173521 41 3 7.8 15.6 0.00 0.00 0.00 48 1025.4
20201124173032 41 7 10.4 15.6 0.00 0.00 0.00 46 1025.2
20201124172519 41 332 6.1 11.3 0.00 0.00 0.00 46 1025.2
20201124172021 42 348 4.3 11.3 0.00 0.00 0.00 45 1025.2
20201124171528 42 290 5.2 10.4 0.00 0.00 0.00 50 1025.3
20201124171021 42 10 3.5 11.3 0.00 0.00 0.00 49 1025.4
20201124170512 42 352 4.3 10.4 0.00 0.00 0.00 49 1025.3
20201124170031 41 305 2.6 12.2 0.00 0.00 0.00 50 1025.2
20201124165510 41 354 4.3 11.3 0.00 0.00 0.00 50 1025.2
20201124165010 41 325 5.2 11.3 0.00 0.00 0.00 50 1025.2
20201124164515 41 318 5.2 11.3 0.00 0.00 0.00 50 1025.2
20201124164011 41 317 5.2 10.4 0.00 0.00 0.00 51 1025.2
20201124163507 41 315 7.0 20.0 0.00 0.00 0.00 52 1025.3
20201124163016 40 326 5.2 20.0 0.00 0.00 0.00 53 1025.3
20201124162518 40 325 5.2 9.6 0.00 0.00 0.00 53 1025.5
20201124162021 41 285 1.7 12.2 0.00 0.00 0.00 55 1025.4
20201124161514 40 286 6.1 12.2 0.00 0.00 0.00 54 1025.4
20201124161007 41 17 2.6 11.3 0.00 0.00 0.00 55 1025.4
20201124160510 41 260 4.3 11.3 0.00 0.00 0.00 54 1025.4
20201124160009 41 325 1.7 9.6 0.00 0.06 0.00 55 1025.4
20201124155100 41 242 4.3 10.4 0.00 0.06 0.00 55 1025.6
20201124154724 41 254 3.5 13.9 0.00 0.06 0.00 58 1025.6
20201124154103 40 248 5.2 13.9 0.00 0.06 0.00 57 1025.7
20201124153557 40 4 3.5 11.3 0.00 0.06 0.00 55 1025.6
20201124153205 40 315 2.6 7.8 0.00 0.06 0.00 58 1025.5
20201124152616 39 332 1.7 10.4 0.00 0.06 0.00 58 1025.5
20201124152057 39 280 2.6 12.2 0.00 0.06 0.00 59 1025.6
20201124151733 40 323 5.2 12.2 0.00 0.06 0.00 57 1025.6
20201124151153 39 275 3.5 11.3 0.00 0.06 0.00 57 1025.5
20201124150556 39 287 3.5 12.2 0.00 0.06 0.00 57 1025.5
20201124150102 39 305 4.3 12.2 0.00 0.06 0.00 57 1025.4
20201124145552 41 279 0.9 13.0 0.00 0.08 0.00 58 1025.2
20201124145052 40 327 6.1 13.0 0.00 0.08 0.00 57 1025.1
20201124144558 39 246 4.3 8.7 0.00 0.08 0.00 58 1024.9
20201124144049 39 320 1.7 10.4 0.00 0.08 0.00 60 1024.8
20201124143552 38 297 3.5 13.0 0.00 0.08 0.00 58 1024.8
20201124143124 38 268 5.2 11.3 0.00 0.08 0.00 59 1024.8
20201124142617 39 308 1.7 11.3 0.00 0.08 0.00 61 1024.8
20201124142049 39 317 0.0 9.6 0.00 0.08 0.00 59 1024.8
20201124141628 39 310 3.5 9.6 0.00 0.08 0.00 60 1024.7
20201124141045 39 302 2.6 10.4 0.00 0.08 0.00 59 1024.6
20201124140545 39 332 5.2 13.0 0.00 0.08 0.00 59 1024.5
20201124140229 38 342 8.7 13.0 0.00 0.08 0.00 60 1024.4
20201124135543 39 337 4.3 9.6 0.00 0.10 0.00 59 1024.5
20201124135104 39 321 4.3 9.6 0.00 0.10 0.00 60 1024.3
20201124134631 38 19 2.6 8.7 0.00 0.10 0.00 60 1024.3
20201124134041 38 301 4.3 10.4 0.00 0.10 0.00 61 1024.1
20201124133540 38 304 5.2 10.4 0.00 0.10 0.00 61 1024.0
20201124133055 38 6 1.7 4.3 0.00 0.10 0.00 63 1024.0
20201124132601 37 312 0.0 0.0 0.00 0.10 0.00 66 1023.9
20201124132038 38 312 0.0 1.7 0.00 0.10 0.00 62 1023.8
20201124131622 38 312 0.0 5.2 0.00 0.10 0.00 63 1023.7
20201124131035 37 317 0.0 0.0 0.00 0.10 0.00 64 1023.5
20201124130534 37 317 0.0 0.0 0.00 0.10 0.00 63 1023.4
20201124130059 38 317 0.0 2.6 0.00 0.10 0.00 63 1023.2
20201124125541 37 317 0.0 5.2 0.00 0.19 0.00 62 1023.1
20201124125042 37 309 2.6 5.2 0.00 0.19 0.00 63 1022.9
20201124124531 37 316 0.9 8.7 0.00 0.19 0.00 63 1022.9
20201124124030 37 356 2.6 8.7 0.00 0.19 0.00 62 1022.6
20201124123541 37 312 2.6 8.7 0.00 0.19 0.00 62 1022.7
20201124123053 37 308 0.9 10.4 0.00 0.19 0.00 63 1022.5
20201124122530 37 311 0.0 8.7 0.00 0.19 0.00 63 1022.4
20201124122111 37 299 2.6 10.4 0.00 0.19 0.00 63 1022.4
20201124121603 37 282 2.6 10.4 0.00 0.19 0.00 63 1022.3
20201124121133 37 265 3.5 11.3 0.00 0.19 0.00 63 1022.2
20201124120526 37 321 4.3 11.3 0.00 0.19 0.00 63 1022.1
20201124120034 37 305 1.7 13.0 0.00 0.19 0.00 63 1022.1
20201124115528 37 286 1.7 9.6 0.00 0.22 0.00 64 1022.0
20201124115054 37 280 3.5 7.0 0.00 0.22 0.00 65 1021.9
20201124114602 37 297 0.0 8.7 0.00 0.22 0.00 64 1021.9
20201124114033 37 303 0.9 11.3 0.00 0.22 0.00 64 1021.8
20201124113532 37 356 5.2 12.2 0.00 0.22 0.00 64 1021.6
20201124113022 37 328 7.0 12.2 0.00 0.22 0.00 64 1021.4
20201124112516 37 303 6.1 14.8 0.00 0.22 0.00 64 1021.4
20201124112024 37 326 5.2 14.8 0.00 0.22 0.00 64 1021.3
20201124111545 37 280 5.2 13.0 0.00 0.22 0.00 64 1021.2
20201124111020 37 327 7.0 14.8 0.00 0.22 0.00 64 1021.0
20201124110531 36 350 3.5 13.9 0.00 0.22 0.00 65 1021.0
20201124110022 36 348 5.2 13.9 0.00 0.24 0.00 66 1020.9
20201124105517 36 260 1.7 8.7 0.00 0.24 0.00 66 1020.7
20201124105027 36 324 4.3 10.4 0.00 0.24 0.00 66 1020.6
20201124104523 36 356 5.2 11.3 0.00 0.24 0.00 67 1020.6
20201124104024 36 348 3.5 13.0 0.00 0.24 0.00 67 1020.5
20201124103519 36 346 1.7 16.5 0.00 0.24 0.00 66 1020.4
20201124103020 36 323 4.3 7.0 0.00 0.24 0.00 67 1020.3
20201124102512 36 301 3.5 7.0 0.00 0.24 0.00 67 1020.2
20201124102022 36 17 2.6 9.6 0.00 0.24 0.00 66 1020.1
20201124101525 36 323 4.3 12.2 0.00 0.24 0.00 67 1020.0
20201124101008 36 337 4.3 12.2 0.00 0.24 0.00 67 1020.0
20201124100520 36 304 2.6 10.4 0.00 0.24 0.00 67 1019.9
20201124100246 36 350 3.5 10.4 0.00 0.24 0.00 67 1020.0
20201124095618 36 301 2.6 13.9 0.00 0.32 0.00 68 1019.9
20201124095100 36 352 0.9 8.7 0.00 0.32 0.00 67 1019.8
20201124094738 36 322 2.6 10.4 0.00 0.32 0.00 67 1019.8
20201124094119 36 350 2.6 10.4 0.00 0.32 0.00 67 1019.8
20201124093606 36 276 3.5 8.7 0.00 0.32 0.00 67 1019.7
20201124093420 36 284 5.2 13.9 0.00 0.32 0.00 67 1019.7
20201124092600 36 286 4.3 13.9 0.00 0.32 0.00 68 1019.7
20201124092055 36 263 2.6 7.8 0.00 0.32 0.00 68 1019.6
20201124091712 35 318 1.7 7.8 0.00 0.32 0.00 69 1019.5
20201124091058 36 288 0.0 6.1 0.00 0.32 0.00 68 1019.3
20201124090615 36 302 0.0 9.6 0.00 0.32 0.00 68 1019.2
20201124090242 36 268 4.3 9.6 0.00 0.32 0.00 68 1019.1
20201124085551 36 323 0.0 8.7 0.00 0.39 0.00 68 1018.9
20201124085057 36 308 0.0 4.3 0.00 0.39 0.00 68 1018.8
20201124084741 36 321 1.7 5.2 0.00 0.39 0.00 68 1018.8
20201124084048 36 305 0.0 8.7 0.00 0.39 0.00 67 1018.7
20201124083550 36 319 1.7 7.0 0.00 0.39 0.00 67 1018.7
20201124083132 36 306 1.7 7.8 0.00 0.39 0.00 68 1018.7
20201124082615 36 304 2.6 7.8 0.00 0.39 0.00 68 1018.7
20201124082058 36 1 2.6 8.7 0.00 0.39 0.00 68 1018.6
20201124081811 36 306 3.5 8.7 0.00 0.39 0.00 68 1018.6
20201124081052 36 242 1.7 7.0 0.00 0.39 0.00 67 1018.6
20201124080617 36 275 1.7 9.6 0.00 0.39 0.00 67 1018.6
20201124080208 37 346 4.3 13.0 0.00 0.39 0.00 66 1018.6
20201124075545 37 274 3.5 13.0 0.00 0.49 0.00 66 1018.6
20201124075047 37 263 4.3 9.6 0.00 0.49 0.00 66 1018.5
20201124074650 37 319 3.5 12.2 0.00 0.49 0.00 66 1018.4
20201124074042 37 292 5.2 12.2 0.00 0.49 0.00 66 1018.3
20201124073557 37 317 7.0 12.2 0.00 0.49 0.00 66 1018.3
20201124073119 37 312 4.3 12.2 0.00 0.49 0.00 66 1018.3
20201124072556 37 308 4.3 12.2 0.00 0.49 0.00 66 1018.1
20201124072038 37 294 4.3 10.4 0.00 0.49 0.00 67 1018.1
20201124071556 36 342 5.2 10.4 0.00 0.49 0.00 67 1018.1
20201124071042 36 328 3.5 10.4 0.00 0.49 0.00 68 1018.1
20201124070542 36 5 3.5 10.4 0.00 0.49 0.00 68 1018.1
20201124070035 36 40 3.5 9.6 0.00 0.49 0.00 67 1017.9
20201124065531 36 342 2.6 9.6 0.00 0.55 0.00 67 1017.8
20201124065034 36 27 4.3 7.8 0.00 0.55 0.00 68 1017.6
20201124064556 36 1 2.6 12.2 0.00 0.55 0.00 68 1017.7
20201124064044 36 36 1.7 11.3 0.00 0.55 0.00 68 1017.6
20201124063533 36 324 6.1 11.3 0.00 0.55 0.00 67 1017.6
20201124063052 36 299 3.5 7.8 0.00 0.55 0.00 68 1017.5
20201124062539 35 342 1.7 7.8 0.00 0.55 0.00 68 1017.5
20201124062040 36 28 4.3 13.0 0.00 0.55 0.00 67 1017.4
20201124061552 36 342 4.3 13.0 0.00 0.55 0.00 67 1017.5
20201124061036 36 337 5.2 11.3 0.00 0.55 0.00 68 1017.4
20201124060539 36 352 3.5 10.4 0.00 0.55 0.00 68 1017.4
20201124060054 36 15 3.5 13.9 0.00 0.55 0.00 67 1017.3
20201124055530 36 23 3.5 13.9 0.00 0.57 0.00 67 1017.4
20201124055055 36 30 3.5 8.7 0.00 0.57 0.00 66 1017.3
20201124054538 37 1 1.7 9.6 0.00 0.57 0.00 66 1017.3
20201124054041 37 337 4.3 10.4 0.00 0.57 0.00 66 1017.3
20201124053525 37 322 5.2 10.4 0.00 0.57 0.00 65 1017.3
20201124053108 37 26 2.6 10.4 0.00 0.57 0.00 65 1017.2
20201124052528 37 346 5.2 13.0 0.00 0.57 0.00 66 1017.2
20201124052024 37 342 1.7 13.0 0.00 0.57 0.00 66 1017.2
20201124051642 37 337 3.5 9.6 0.00 0.57 0.00 66 1017.1
20201124051021 37 22 3.5 16.5 0.00 0.57 0.00 66 1017.1
20201124050530 37 332 7.0 16.5 0.00 0.57 0.00 66 1017.0
20201124050022 37 234 3.5 10.4 0.00 0.61 0.57 67 1016.8
20201124045519 37 328 3.5 13.9 0.00 0.61 0.57 67 1016.9
20201124045037 37 327 2.6 13.9 0.00 0.61 0.57 66 1016.9
20201124044521 37 314 2.6 12.2 0.00 0.61 0.57 67 1016.9
20201124044025 37 357 3.5 12.2 0.00 0.61 0.57 67 1016.9
20201124043531 37 292 5.2 12.2 0.00 0.61 0.57 67 1016.9
20201124043030 37 296 3.5 16.5 0.00 0.61 0.57 66 1016.9
20201124042521 37 292 6.1 16.5 0.00 0.61 0.57 66 1016.9
20201124042025 36 298 3.5 12.2 0.00 0.61 0.57 67 1017.0
20201124041523 36 315 4.3 9.6 0.00 0.61 0.57 67 1016.9
20201124041027 37 258 3.5 12.2 0.00 0.61 0.57 66 1016.9
20201124040536 37 309 4.3 12.2 0.00 0.61 0.57 66 1016.9
20201124040023 36 314 2.6 11.3 0.00 0.62 0.57 67 1017.0
20201124035517 36 282 5.2 11.3 0.00 0.62 0.57 67 1017.0
20201124035026 36 294 3.5 12.2 0.00 0.62 0.57 67 1017.0
20201124034518 36 322 2.6 12.2 0.00 0.62 0.57 67 1017.0
20201124034037 36 252 2.6 12.2 0.00 0.62 0.57 67 1017.0
20201124033520 36 286 2.6 10.4 0.00 0.62 0.57 67 1016.9
20201124033020 36 317 4.3 10.4 0.00 0.62 0.57 67 1016.8
20201124032516 36 278 1.7 7.8 0.00 0.62 0.57 68 1016.8
20201124032018 36 303 0.9 11.3 0.00 0.62 0.57 67 1016.8
20201124031516 36 306 6.1 11.3 0.00 0.62 0.57 67 1016.7
20201124030615 36 298 4.3 11.3 0.00 0.62 0.57 67 1016.6
20201124030229 36 242 3.5 12.2 0.00 0.62 0.57 67 1016.6
20201124025645 36 325 6.1 12.2 0.00 0.63 0.57 68 1016.6
20201124025112 36 295 0.0 11.3 0.00 0.63 0.57 68 1016.6
20201124024855 36 17 6.1 13.0 0.00 0.63 0.57 68 1016.7
20201124024103 35 28 0.0 5.2 0.00 0.63 0.57 69 1016.7
20201124023556 36 15 0.9 7.0 0.00 0.63 0.57 68 1016.8
20201124023221 36 332 1.7 7.8 0.00 0.63 0.57 68 1016.8
20201124022608 36 360 4.3 8.7 0.00 0.63 0.57 68 1016.9
20201124022057 36 351 3.5 8.7 0.00 0.63 0.57 68 1016.8
20201124021711 36 359 0.0 7.0 0.00 0.63 0.57 68 1016.8
20201124021055 36 356 2.6 7.0 0.00 0.63 0.57 68 1016.7
20201124020555 36 356 0.9 13.0 0.00 0.63 0.57 68 1016.7
20201124020232 36 304 1.7 13.0 0.00 0.63 0.57 67 1016.8
20201124015602 36 317 6.1 12.2 0.00 0.64 0.57 67 1016.7
20201124015120 36 302 3.5 8.7 0.00 0.64 0.57 67 1016.6
20201124014657 36 322 3.5 13.0 0.00 0.64 0.57 67 1016.7
20201124014055 36 346 5.2 13.0 0.00 0.64 0.57 67 1016.8
20201124013600 36 319 4.3 7.8 0.00 0.64 0.57 68 1016.7
20201124013224 36 342 0.9 8.7 0.00 0.64 0.57 68 1016.8
20201124012550 37 312 2.6 11.3 0.00 0.64 0.57 68 1016.8
20201124012049 37 7 5.2 10.4 0.00 0.64 0.57 67 1016.8
20201124011725 37 308 0.9 7.0 0.00 0.64 0.57 68 1016.8
20201124011057 37 7 0.9 12.2 0.00 0.64 0.57 67 1016.8
20201124010553 37 19 4.3 12.2 0.00 0.64 0.57 66 1016.7
20201124010237 37 328 6.1 15.6 0.00 0.64 0.57 66 1016.7
20201124005601 37 34 5.2 15.6 0.00 0.64 0.57 66 1016.6
20201124005050 37 46 6.1 11.3 0.00 0.64 0.57 66 1016.6
20201124004652 37 332 2.6 16.5 0.00 0.64 0.57 66 1016.5
20201124004049 37 349 7.8 16.5 0.00 0.64 0.57 66 1016.4
20201124003551 37 312 8.7 13.0 0.00 0.64 0.57 66 1016.4
20201124003211 37 7 4.3 12.2 0.00 0.64 0.57 66 1016.4
20201124002542 37 342 2.6 15.6 0.00 0.64 0.57 66 1016.3
20201124002042 38 325 6.1 15.6 0.00 0.64 0.57 65 1016.5
20201124001614 38 313 0.9 13.9 0.00 0.64 0.57 66 1016.4
20201124001052 38 5 3.5 17.4 0.00 0.64 0.57 66 1016.4
20201124000600 38 321 6.1 15.6 0.00 0.64 0.57 66 1016.4
20201124000208 38 306 7.0 14.8 0.00 0.64 0.57 67 1016.3
20201123235543 38 318 4.3 13.0 0.00 0.64 0.57 68 1016.2
20201123235045 37 307 6.1 13.0 0.00 0.64 0.57 69 1016.1
20201123234615 37 308 1.7 13.0 0.00 0.64 0.57 69 1016.1
20201123234041 37 11 5.2 13.0 0.00 0.64 0.57 69 1016.1
20201123233540 38 4 4.3 7.8 0.00 0.64 0.57 69 1016.1
20201123233139 38 352 2.6 5.2 0.00 0.64 0.57 69 1016.0
20201123232606 38 332 0.0 7.0 0.00 0.64 0.57 70 1015.9
20201123232036 38 342 2.6 8.7 0.00 0.64 0.57 70 1015.7
20201123231619 38 360 0.0 8.7 0.00 0.64 0.57 70 1015.6
20201123231045 39 325 0.0 10.4 0.00 0.64 0.57 70 1015.5
20201123230534 38 325 3.5 12.2 0.00 0.64 0.57 70 1015.3
20201123230054 38 337 5.2 12.2 0.00 0.64 0.57 71 1015.3
20201123225532 38 348 0.0 3.5 0.00 0.64 0.57 73 1015.3
20201123225054 38 15 0.0 3.5 0.00 0.64 0.57 72 1015.2
20201123224607 38 15 0.0 4.3 0.00 0.64 0.57 73 1015.1
20201123224103 38 29 2.6 5.2 0.00 0.64 0.57 74 1015.0
20201123223551 39 356 0.0 5.2 0.00 0.64 0.57 74 1014.9
20201123223054 39 32 0.0 7.8 0.00 0.64 0.57 75 1014.7
20201123222531 38 60 0.0 7.8 0.00 0.64 0.57 77 1014.6
20201123222035 39 3 0.0 0.0 0.00 0.64 0.57 76 1014.6
20201123221603 39 3 0.0 2.6 0.00 0.64 0.57 74 1014.4
20201123221034 40 356 0.9 2.6 0.00 0.64 0.57 73 1014.4
20201123220532 40 312 0.0 1.7 0.00 0.64 0.57 72 1014.3
20201123220127 40 309 0.0 2.6 0.00 0.64 0.57 70 1014.1
20201123215537 41 308 0.0 4.3 0.00 0.64 0.57 70 1014.1
20201123215038 41 313 0.9 8.7 0.00 0.64 0.57 69 1013.9
20201123214543 41 269 1.7 8.7 0.00 0.64 0.57 70 1013.9
20201123214045 42 278 4.3 8.7 0.00 0.64 0.57 69 1013.7
20201123213534 42 278 4.3 10.4 0.00 0.64 0.57 69 1013.6
20201123213110 42 246 1.7 5.2 0.00 0.64 0.57 69 1013.5
20201123212531 42 238 0.0 9.6 0.00 0.64 0.57 69 1013.3
20201123212035 42 288 0.9 10.4 0.00 0.64 0.57 69 1013.0
20201123211542 42 327 2.6 10.4 0.00 0.64 0.57 69 1013.0
20201123211030 42 267 0.9 8.7 0.00 0.64 0.57 69 1012.8
20201123210528 42 265 2.6 8.7 0.00 0.64 0.57 69 1012.8
20201123210130 42 273 0.0 8.7 0.00 0.64 0.57 69 1012.6
20201123205534 43 311 2.6 8.7 0.00 0.64 0.57 68 1012.5
20201123205033 43 290 0.0 7.0 0.00 0.64 0.57 68 1012.4
20201123204545 43 296 2.6 9.6 0.00 0.64 0.57 67 1012.4
20201123204027 44 292 2.6 10.4 0.00 0.64 0.57 67 1012.4
20201123203527 44 23 5.2 9.6 0.00 0.64 0.57 66 1012.3
20201123203101 44 203 2.6 7.0 0.00 0.64 0.57 68 1012.2
20201123202551 44 347 2.6 5.2 0.00 0.64 0.57 67 1012.1
20201123202035 45 307 0.9 7.0 0.00 0.64 0.57 66 1012.0
20201123201535 45 1 0.0 7.8 0.00 0.64 0.57 67 1011.7
20201123201051 45 346 3.5 16.5 0.00 0.64 0.57 66 1011.5
20201123200525 45 308 8.7 16.5 0.00 0.64 0.57 65 1011.6
20201123200117 46 303 0.9 13.0 0.00 0.64 0.57 65 1011.5
20201123195525 46 327 0.0 10.4 0.00 0.64 0.57 67 1011.4
20201123195037 46 301 1.7 13.0 0.00 0.64 0.57 68 1011.2
20201123194543 46 276 6.1 13.9 0.00 0.64 0.57 66 1011.2
20201123194031 46 2 2.6 14.8 0.00 0.64 0.57 67 1011.0
20201123193526 47 252 4.3 13.9 0.00 0.64 0.57 69 1010.8
20201123193031 47 298 0.0 11.3 0.00 0.64 0.57 68 1010.7
20201123192528 46 1 4.3 14.8 0.00 0.64 0.57 69 1010.5
20201123192023 46 275 4.3 15.6 0.00 0.64 0.57 68 1010.4
20201123191545 46 281 5.2 15.6 0.00 0.64 0.57 69 1010.4
20201123191026 46 297 4.3 13.0 0.00 0.64 0.57 70 1010.2
20201123190530 46 352 5.2 14.8 0.00 0.64 0.57 71 1010.2
20201123190043 46 342 4.3 15.6 0.00 0.64 0.57 70 1010.1
20201123185535 46 285 4.3 15.6 0.00 0.64 0.57 71 1010.1
20201123185037 46 327 3.5 7.8 0.00 0.64 0.57 73 1010.1
20201123184634 46 261 1.7 9.6 0.00 0.64 0.57 74 1010.2
20201123184021 46 304 1.7 9.6 0.00 0.64 0.57 73 1010.4
20201123183518 46 268 3.5 9.6 0.00 0.64 0.57 74 1010.4
20201123183021 46 319 1.7 9.6 0.00 0.64 0.57 74 1010.6
20201123182518 47 270 3.5 10.4 0.00 0.64 0.57 74 1010.4
20201123182021 46 358 2.6 10.4 0.00 0.64 0.57 77 1010.7
20201123181557 46 245 2.6 9.6 0.00 0.64 0.57 78 1010.7
20201123181018 46 307 4.3 9.6 0.00 0.64 0.57 76 1010.6
20201123180517 45 8 0.9 13.0 0.00 0.64 0.57 78 1010.7
20201123180022 45 342 6.1 13.0 0.00 0.64 0.57 77 1010.6
20201123175523 44 261 1.7 5.2 0.00 0.64 0.57 82 1010.6